STARLINK-11364, 61543

Orbit data source: Space-Track

STARLINK-11364, 61543 is a payload satellite owned by SpaceX/Seattle (US) in LEO that was launched on Tue, 15 Oct 2024 UTC via an FALCON 9 launch vehicle from the Air Force Western Test Range (AFWTR). Payload-class satellites include a variety of spacecraft equipped with specific instruments for various scientific and technological missions. These include communications satellites like Starlink; space stations such as the ISS; scientific satellites like the Hubble; Earth observation satellites from companies like Planet Labs, Umbra, and HawkEye 360; GPS; miniature CubeSats for education and research; and military/defense satellites.

Loading next visibility...
Identifier
61543, 2024-184M
Orbit
LEO
Country
Flag of USUS
Related business
Manufacturer
SpaceX/Seattle
Mission
Operational Commercial Communications
Bus & Motor
STARLINK V2MD, Unknown motor
Mass
960 kg wet, ~910 kg dry
Launch date (UTC)
2024-10-15 (2 years ago)
Launch vehicle
FALCON 9
Launch site
Air Force Western Test Range (AFWTR)
Object type
Payload
Rocket body
Debris
Shape & HBR
Box + 2 Pan, 18.1 m
Radar Cross Section
36.964 m², Large (>1 m²)

Expand to show TLE details & history
Last TLE update: 23 hours ago

TLE from 23 hours ago
0 STARLINK-11364
1 61543U 24184M   26170.93648173  .00001127  00000-0  14166-4 0  9998
2 61543  53.1608  92.4194 0001434  96.5509 263.5672 15.69712523 96477
Epoch: 2026-06-19T22:28Z
TLE epoch observation values (Epoch: 2026-06-19T22:28:32.021Z)
Latitude
-0.00004°
Longitude
-152.87235°
Altitude
360.743 km
Speed
7.694 km/s
True Right ascension
06h 09m 40s
True Declination
0° 00' 00"
Sunlit
Object was in daylight at epoch
Visualization orbit readout
Latitude
Unknown
Longitude
Unknown
Altitude
Unknown
Speed
Unknown
Apparent Right ascension
Unknown
Apparent Declination
Unknown
Sunlit
N/A
Visualization observer readout
Local Sidereal Time
08:33:26
Azimuth
Unknown
Elevation
Unknown
Doppler factor
Unknown
Orbital elements
Apogee altitude
360.946 km
Perigee altitude
359.014 km
Semi-major axis
6,738.117 km
Eccentricity
0.00014
Inclination
53.1608°
RAAN
92.4194°
Arg. of periapsis
96.5509°
True anomaly
263.55087°
Mean anomaly
263.5672°
Eccentric anomaly
263.55904°
Mean motion
3.92406 °/min
Orbital period
91.74 mins
BSTAR
0.000014166
Loading maneuver chart data...
Computing Atmospheric mass density...
Loading historical data...
Loading historical data...
Loading historical data...
Loading historical data...
Loading historical data...
Loading historical data...
Loading historical data...

Documentation

Showing up to 5 results
|